[[{"header":{"parameterUnit":"m.s-1","parameterCategory":1,"la1":30.2991,"la2":30.254,"lo1":-89.0895,"lo2":-89.0444,"dy":0.0017,"dx":0.0017,"nx":28,"ny":28,"refTime":"2025-02-25T09:00:00:Z","depth":0,"parameterNumber":2,"parameterNumberName":"U-component_of_WINDS"},"data":[0,0,0,0,0,0,0,0,0,0,0,0,0,0,0,0,0,0,0,0,0,0,0,0,0,0,0,0,0,0,0,0,0,0,0,0,0,0,0,0,0,0,0,0,0,0,0,0,0,0,0,0,0,0,0,0,0,0,0.7935,0.7935,0,0.7921,0.7921,0.7921,0.7868,0.7867,0.7866,0.7865,0.7854,0.7855,0.7856,0,0,0,0,0,0,0,0,0,0,0,0,0,0.7921,0.7921,0.7935,0.7935,0.7935,0.7921,0.7921,0.7921,0.7868,0.7867,0.7865,0.7864,0.7854,0.7855,0.7856,0,0,0,0,0,0,0,0,0,0,0,0,0,0.7919,0.7921,0.7935,0.7907,0.7904,0.7921,0.7921,0.7921,0.7869,0.7867,0.7865,0.7863,0.7854,0.7855,0.7856,0.7901,0,0,0.786,0.7861,0,0,0,0,0,0,0,0,0.7919,0.792,0.7911,0.7909,0.7906,0.7894,0.7912,0.7914,0.7869,0.7882,0.7865,0.7862,0.7869,0.7869,0.7871,0.79,0.79,0.786,0.7861,0.7862,0.7862,0,0,0,0,0,0,0,0.7919,0.792,0.793,0.7911,0.7908,0.7896,0.7894,0.7912,0.7886,0.7881,0.7877,0.7876,0.7868,0.787,0.787,0.7899,0.786,0.7861,0.7862,0.7863,0.7965,0.7967,0,0,0,0,0,0,0.7923,0.792,0.793,0.7929,0.7908,0.7898,0.7895,0.79,0.7886,0.7882,0.7878,0.7874,0.7868,0.7869,0.787,0.7921,0.7862,0.7863,0.7864,0.7963,0.7965,0.7968,0,0,0,0,0,0,0.7923,0.7924,0.7931,0.7924,0.7924,0.79,0.7906,0.7901,0.7903,0.7883,0.7879,0.7884,0.7867,0.7868,0.7893,0.792,0.7863,0.7865,0.7961,0.7964,0.7967,0.8025,0,0,0,0,0,0,0.7923,0.7925,0.794,0.7924,0.7924,0.7954,0.7907,0.7902,0.7904,0.7899,0.7888,0.7885,0.7866,0.7891,0.7894,0.7921,0.7866,0.7958,0.7962,0.7966,0.802,0.8029,0.8037,0,0,0,0,0,0.7922,0.7958,0.7941,0.7943,0.7943,0.7955,0.7955,0.7931,0.7907,0.7923,0.7911,0.7885,0.7916,0.7894,0.7897,0.7925,0.7957,0.7961,0.7965,0.8017,0.8027,0.8037,0,0,0,0,0,0,0.798,0.7956,0.7937,0.7968,0.7964,0.7946,0.7966,0.7943,0.7947,0.7942,0.7913,0.7911,0.7941,0.7935,0.7911,0.7967,0.7932,0.7937,0.797,0.798,0.7989,0.799,0.7867,0,0,0,0,0,0.7995,0.8006,0.7985,0.8015,0.8013,0.799,0.7995,0.7976,0.7971,0.797,0.7959,0.7956,0.7965,0.7972,0.798,0.8018,0.8016,0.8039,0.8047,0.8054,0.8059,0.808,0.8091,0.7982,0.7982,0.7982,0,0,0.8029,0.8017,0.8026,0.8026,0.802,0.8033,0.7989,0.8005,0.8014,0.7972,0.7996,0.7988,0.7983,0.8015,0.8029,0.8011,0.8089,0.8059,0.8065,0.8067,0.8086,0.8096,0.8106,0.7985,0.7984,0.7984,0,0,0.8098,0.8089,0.8113,0.8108,0.81,0.8084,0.809,0.8076,0.8068,0.8091,0.806,0.8071,0.8087,0.8085,0.8086,0.8153,0.813,0.8156,0.8201,0.8221,0.823,0.8237,0.8263,0.8272,0.8161,0.8161,0.8162,0,0.8142,0.8158,0.8129,0.8146,0.8148,0.8108,0.8134,0.8131,0.8126,0.8128,0.8108,0.8127,0.8121,0.8153,0.8169,0.8171,0.8178,0.8158,0.8231,0.8238,0.8245,0.8268,0.8278,0.8165,0.8164,0.8164,0.8164,0,0.8213,0.8225,0.8246,0.8241,0.8244,0.8265,0.8241,0.8248,0.8229,0.8216,0.8239,0.823,0.8235,0.8241,0.8223,0.8271,0.826,0.8236,0.82,0.8259,0.8281,0.829,0.817,0.8168,0.8167,0.8167,0,0,0.8319,0.8296,0.8305,0.8302,0.8289,0.8299,0.8318,0.8322,0.8329,0.8327,0.8344,0.8358,0.8335,0.8336,0.8317,0.8336,0.8391,0.8309,0.8308,0.8326,0.8444,0.8464,0.8475,0.8374,0.8376,0.8377,0.8445,0,0.8385,0.8416,0.839,0.8427,0.8439,0.8401,0.8418,0.8413,0.8401,0.841,0.8397,0.8408,0.8376,0.8377,0.8393,0.8381,0.8414,0.8375,0.8392,0.8393,0.8396,0.8486,0.8507,0.8571,0.8453,0.8454,0.8455,0,0.8467,0.8467,0.8504,0.8489,0.8493,0.8509,0.851,0.8519,0.8512,0.8502,0.8503,0.848,0.8499,0.8463,0.849,0.8464,0.8469,0.8464,0.8466,0.8469,0.8429,0.8492,0.8591,0.8602,0.8468,0.8467,0.8466,0,0.8542,0.8552,0.8575,0.8574,0.8557,0.8569,0.8562,0.8554,0.8558,0.8559,0.8561,0.8565,0.8568,0.8572,0.8551,0.8526,0.8582,0.8544,0.8576,0.8576,0.8591,0.8591,0.8694,0.8591,0.8591,0.8591,0.8591,0,0.862,0.8645,0.8609,0.8624,0.8651,0.8621,0.8649,0.8639,0.8631,0.8645,0.8612,0.8626,0.8595,0.8606,0.859,0.8616,0.8617,0.861,0.8606,0.8614,0.8616,0.8619,0.8615,0.8593,0.8593,0.8592,0.8592,0,0.871,0.8686,0.871,0.8691,0.8687,0.8708,0.8692,0.8706,0.8691,0.8708,0.871,0.8688,0.8698,0.8677,0.8685,0.8674,0.8711,0.8699,0.8713,0.871,0.8744,0.8742,0.8854,0.8868,0.8755,0.8756,0.8757,0,0.8762,0.878,0.8763,0.8768,0.8763,0.8773,0.8776,0.8747,0.8753,0.8746,0.8761,0.8769,0.8774,0.8793,0.8778,0.8784,0.8773,0.8812,0.8774,0.8782,0.8776,0.8776,0.8778,0.8821,0.8822,0.8823,0.8824,0,0.8858,0.8845,0.885,0.8852,0.8856,0.8856,0.8854,0.8861,0.883,0.8837,0.8847,0.8851,0.8858,0.8867,0.8869,0.8864,0.884,0.8836,0.8844,0.8854,0.8862,0.886,0.8736,0.8834,0.8833,0.8832,0.8832,0.8831,0.8932,0.8946,0.8936,0.8943,0.8938,0.8936,0.8948,0.8934,0.8941,0.8944,0.8927,0.8941,0.8934,0.8935,0.8932,0.8943,0.8926,0.8938,0.8941,0.8945,0.8951,0.8858,0.8944,0.8943,0.8943,0.8943,0.8942,0,0.9027,0.9018,0.9025,0.9022,0.9028,0.9002,0.8998,0.9005,0.9017,0.9012,0.9017,0.9029,0.9037,0.9022,0.9028,0.904,0.9029,0.9043,0.9043,0.9042,0.8965,0.8958,0.9051,0.9051,0.9051,0.9051,0.9051,0.9051,0.9078,0.9101,0.9087,0.9108,0.9099,0.9112,0.9112,0.9111,0.9107,0.9121,0.9126,0.9116,0.9107,0.9112,0.9119,0.9114,0.9119,0.9137,0.9129,0.9058,0.9047,0.9037,0.9031,0.9138,0.9138,0.9205,0.9206,0.9206]},{"header":{"parameterUnit":"m.s-1","parameterCategory":1,"la1":30.2991,"la2":30.254,"lo1":-89.0895,"lo2":-89.0444,"dy":0.0017,"dx":0.0017,"nx":28,"ny":28,"refTime":"2025-02-25T09:00:00:Z","depth":0,"parameterNumber":3,"parameterNumberName":"V-component_of_WINDS"},"data":[0,0,0,0,0,0,0,0,0,0,0,0,0,0,0,0,0,0,0,0,0,0,0,0,0,0,0,0,0,0,0,0,0,0,0,0,0,0,0,0,0,0,0,0,0,0,0,0,0,0,0,0,0,0,0,0,0,0,-0.1184,-0.1185,0,-0.1235,-0.1236,-0.1236,-0.1262,-0.1262,-0.1262,-0.1262,-0.1317,-0.1318,-0.132,0,0,0,0,0,0,0,0,0,0,0,0,0,-0.1111,-0.1113,-0.1184,-0.1185,-0.1185,-0.1235,-0.1236,-0.1237,-0.1262,-0.1262,-0.1262,-0.1262,-0.1316,-0.1318,-0.132,0,0,0,0,0,0,0,0,0,0,0,0,0,-0.1151,-0.1113,-0.1184,-0.1204,-0.1206,-0.1235,-0.1236,-0.1237,-0.1262,-0.1262,-0.1262,-0.1262,-0.1316,-0.1318,-0.132,-0.1334,0,0,-0.1327,-0.1328,0,0,0,0,0,0,0,0,-0.1149,-0.1153,-0.12,-0.1202,-0.1205,-0.1242,-0.1231,-0.127,-0.1262,-0.1241,-0.1262,-0.1262,-0.1292,-0.1296,-0.1306,-0.1337,-0.1339,-0.1327,-0.1328,-0.1329,-0.133,0,0,0,0,0,0,0,-0.1146,-0.1151,-0.1204,-0.1201,-0.1204,-0.1211,-0.1217,-0.1238,-0.1266,-0.1242,-0.1244,-0.125,-0.1293,-0.1304,-0.1308,-0.134,-0.1327,-0.1329,-0.133,-0.1331,-0.1386,-0.1387,0,0,0,0,0,0,-0.1139,-0.1149,-0.1203,-0.1206,-0.1176,-0.1212,-0.1219,-0.123,-0.1266,-0.1271,-0.125,-0.1251,-0.13,-0.1305,-0.131,-0.1329,-0.1329,-0.1332,-0.1333,-0.1386,-0.1386,-0.1387,0,0,0,0,0,0,-0.1138,-0.1144,-0.1201,-0.1178,-0.1186,-0.1214,-0.1226,-0.1231,-0.1241,-0.1271,-0.1277,-0.1255,-0.13,-0.1306,-0.1328,-0.1331,-0.1333,-0.1335,-0.1386,-0.1386,-0.1387,-0.1368,0,0,0,0,0,0,-0.1136,-0.1143,-0.1148,-0.1178,-0.1187,-0.1217,-0.1227,-0.1232,-0.1245,-0.1247,-0.1278,-0.1283,-0.1301,-0.1325,-0.133,-0.1335,-0.1336,-0.1386,-0.1386,-0.1386,-0.1368,-0.1368,-0.1367,0,0,0,0,0,-0.1133,-0.1141,-0.1148,-0.1154,-0.1193,-0.1217,-0.1222,-0.1242,-0.1245,-0.1251,-0.127,-0.1282,-0.133,-0.1327,-0.1333,-0.1338,-0.1386,-0.1386,-0.1386,-0.1369,-0.1368,-0.1367,0,0,0,0,0,0,-0.1111,-0.1145,-0.1153,-0.1171,-0.1191,-0.1221,-0.1229,-0.124,-0.126,-0.1261,-0.1286,-0.1292,-0.1312,-0.1327,-0.1323,-0.1354,-0.1359,-0.1361,-0.1344,-0.1343,-0.1342,-0.1338,-0.1338,0,0,0,0,0,-0.1109,-0.1124,-0.1153,-0.1166,-0.1176,-0.1201,-0.1212,-0.1225,-0.1247,-0.1256,-0.1277,-0.1299,-0.1319,-0.1332,-0.1352,-0.1371,-0.1379,-0.1378,-0.1377,-0.1376,-0.1377,-0.139,-0.139,-0.1388,-0.1388,-0.1388,0,0,-0.1103,-0.1124,-0.1132,-0.1163,-0.118,-0.1197,-0.1208,-0.1225,-0.1238,-0.1259,-0.128,-0.1297,-0.1323,-0.1343,-0.1353,-0.1357,-0.138,-0.1376,-0.1375,-0.1377,-0.139,-0.139,-0.139,-0.1388,-0.1388,-0.1388,0,0,-0.1102,-0.1119,-0.1132,-0.1149,-0.1174,-0.1191,-0.1194,-0.1223,-0.1234,-0.1256,-0.1272,-0.1289,-0.1323,-0.1341,-0.1354,-0.1361,-0.1373,-0.1367,-0.1363,-0.1375,-0.1375,-0.1375,-0.1379,-0.138,-0.1368,-0.1368,-0.1368,0,-0.1093,-0.1118,-0.1137,-0.1154,-0.1167,-0.1186,-0.1201,-0.1216,-0.1247,-0.1257,-0.126,-0.1303,-0.1322,-0.1348,-0.1349,-0.136,-0.1365,-0.1364,-0.1373,-0.1374,-0.1374,-0.1378,-0.1379,-0.1368,-0.1368,-0.1368,-0.1368,0,-0.1105,-0.1122,-0.113,-0.1159,-0.1173,-0.1188,-0.1212,-0.1224,-0.1237,-0.1253,-0.1276,-0.1299,-0.1325,-0.1332,-0.1344,-0.136,-0.1361,-0.1368,-0.1374,-0.1373,-0.1377,-0.1379,-0.1366,-0.1367,-0.1367,-0.1367,0,0,-0.1092,-0.1132,-0.1134,-0.1148,-0.1178,-0.1192,-0.1209,-0.1233,-0.1244,-0.1265,-0.128,-0.1309,-0.1316,-0.1331,-0.1346,-0.1356,-0.1362,-0.1363,-0.1364,-0.1362,-0.1381,-0.1376,-0.1377,-0.137,-0.137,-0.137,-0.138,0,-0.1095,-0.1125,-0.1144,-0.1167,-0.1184,-0.1202,-0.1217,-0.1238,-0.1254,-0.1272,-0.129,-0.131,-0.1318,-0.1327,-0.1338,-0.1359,-0.1366,-0.1358,-0.1386,-0.1386,-0.1379,-0.1379,-0.1373,-0.1381,-0.1381,-0.1381,-0.1382,0,-0.1103,-0.1123,-0.1147,-0.1176,-0.1184,-0.1197,-0.1221,-0.1237,-0.1262,-0.1273,-0.1291,-0.1306,-0.1326,-0.1329,-0.1358,-0.1352,-0.1364,-0.1376,-0.1377,-0.1381,-0.1384,-0.1384,-0.1384,-0.1385,-0.1384,-0.1384,-0.1384,0,-0.1092,-0.1125,-0.1144,-0.1155,-0.1189,-0.1198,-0.1212,-0.1237,-0.125,-0.1272,-0.1282,-0.1306,-0.1319,-0.1338,-0.136,-0.136,-0.1386,-0.1392,-0.1397,-0.1397,-0.1402,-0.1402,-0.1405,-0.1409,-0.1409,-0.1409,-0.1409,0,-0.1095,-0.1109,-0.114,-0.1151,-0.1168,-0.119,-0.1207,-0.1224,-0.1245,-0.1261,-0.1279,-0.1295,-0.1322,-0.1341,-0.1358,-0.138,-0.1386,-0.1396,-0.1401,-0.1395,-0.1394,-0.1404,-0.1404,-0.141,-0.141,-0.141,-0.1409,0,-0.1085,-0.1106,-0.1128,-0.1158,-0.1166,-0.1177,-0.1204,-0.1217,-0.1234,-0.1255,-0.1261,-0.1288,-0.1312,-0.1335,-0.1367,-0.1379,-0.14,-0.1406,-0.1392,-0.1394,-0.1399,-0.1398,-0.1409,-0.1412,-0.1414,-0.1414,-0.1414,0,-0.1085,-0.1097,-0.1128,-0.114,-0.1154,-0.1172,-0.1187,-0.1209,-0.1223,-0.1253,-0.1262,-0.1287,-0.1307,-0.1344,-0.1368,-0.1393,-0.14,-0.1402,-0.1403,-0.1397,-0.1401,-0.14,-0.1402,-0.1401,-0.1401,-0.1401,-0.1401,0,-0.1084,-0.1094,-0.1113,-0.1136,-0.1152,-0.1171,-0.1192,-0.1201,-0.1228,-0.1243,-0.1266,-0.1282,-0.1315,-0.1339,-0.1367,-0.1384,-0.1397,-0.14,-0.1403,-0.1397,-0.1389,-0.1394,-0.139,-0.14,-0.14,-0.14,-0.14,-0.14,-0.108,-0.1091,-0.1115,-0.1136,-0.1154,-0.1172,-0.1186,-0.1205,-0.1225,-0.1252,-0.1265,-0.1289,-0.1314,-0.1353,-0.1369,-0.1389,-0.1393,-0.1397,-0.1398,-0.1398,-0.1397,-0.1385,-0.1394,-0.1394,-0.1394,-0.1394,-0.1394,0,-0.108,-0.1096,-0.1115,-0.1143,-0.116,-0.117,-0.1193,-0.1207,-0.1228,-0.125,-0.127,-0.1298,-0.1322,-0.1348,-0.1374,-0.1385,-0.1392,-0.1391,-0.1391,-0.1395,-0.1392,-0.1388,-0.1385,-0.1385,-0.1385,-0.1385,-0.1385,-0.1385,-0.1082,-0.1102,-0.1115,-0.1145,-0.1161,-0.1184,-0.1197,-0.1215,-0.1233,-0.1263,-0.1282,-0.1299,-0.1323,-0.1351,-0.1374,-0.1381,-0.139,-0.1388,-0.1397,-0.1394,-0.1395,-0.1395,-0.1391,-0.1389,-0.1389,-0.1398,-0.1398,-0.1398]}]]